QPF
0.00 0.00 0.00 0.00 0.00 0.00 0.00 0.00 0.00 0.00 0.00 0.00 0.00 0.00 0.00 0.00 0.00 0.00 0.00 0.00 0.00 0.00 0.00 0.00 0.00 0.00 0.00 0.00 0.00 0.01 0.01 0.01 0.01 0.01 0.01 0.02 0.02 0.02
0.00 0.00 0.00 0.00 0.00 0.00 0.00 0.00 0.00 0.00 0.00 0.00 0.00 0.00 0.00 0.00 0.00 0.00 0.00 0.00 0.00 0.00 0.00 0.00 0.00 0.00 0.00 0.00 0.00 0.01 0.01 0.01 0.01 0.02 0.02 0.02 0.03 0.03
0.00 0.00 0.00 0.00 0.00 0.00 0.00 0.00 0.00 0.00 0.00 0.00 0.00 0.00 0.00 0.00 0.00 0.00 0.00 0.00 0.00 0.00 0.00 0.00 0.00 0.00 0.00 0.00 0.00 0.01 0.01 0.01 0.01 0.02 0.02 0.02 0.03 0.03
0.00 0.00 0.00 0.00 0.00 0.00 0.00 0.00 0.00 0.00 0.00 0.00 0.00 0.00 0.00 0.00 0.00 0.00 0.00 0.00 0.00 0.00 0.00 0.00 0.00 0.00 0.01 0.01 0.01 0.01 0.01 0.01 0.01 0.01 0.02 0.02 0.02 0.02
0.00 0.00 0.00 0.00 0.00 0.00 0.00 0.00 0.00 0.00 0.00 0.00 0.00 0.00 0.00 0.00 0.00 0.00 0.00 0.00 0.00 0.00 0.00 0.00 0.00 0.00 0.01 0.01 0.01 0.01 0.01 0.01 0.01 0.01 0.01 0.01 0.01 0.02
0.00 0.00 0.00 0.00 0.00 0.00 0.00 0.01 0.01 0.01 0.01 0.01 0.01 0.00 0.00 0.00 0.01 0.01 0.01 0.00 0.00 0.00 0.00 0.00 0.00 0.00 0.00 0.01 0.01 0.01 0.01 0.01 0.01 0.01 0.01 0.01 0.01 0.01
0.00 0.00 0.00 0.00 0.00 0.00 0.01 0.01 0.01 0.01 0.02 0.02 0.02 0.01 0.01 0.02 0.02 0.01 0.02 0.01 0.01 0.00 0.00 0.00 0.00 0.00 0.00 0.00 0.00 0.00 0.00 0.01 0.01 0.01 0.01 0.01 0.01 0.01
0.00 0.00 0.00 0.00 0.00 0.01 0.01 0.02 0.02 0.03 0.02 0.02 0.02 0.02 0.01 0.01 0.02 0.03 0.03 0.03 0.02 0.00 0.00 0.00 0.00 0.00 0.00 0.00 0.00 0.00 0.00 0.00 0.01 0.01 0.01 0.01 0.01 0.01
0.00 0.00 0.00 0.00 0.00 0.00 0.01 0.02 0.03 0.05 0.05 0.04 0.03 0.01 0.01 0.01 0.03 0.04 0.03 0.02 0.01 0.00 0.01 0.01 0.00 0.00 0.00 0.00 0.00 0.00 0.00 0.00 0.00 0.01 0.01 0.01 0.01 0.01
0.00 0.00 0.00 0.00 0.00 0.01 0.01 0.01 0.01 0.02 0.04 0.07 0.09 0.05 0.02 0.01 0.02 0.02 0.02 0.04 0.02 0.01 0.01 0.02 0.00 0.00 0.00 0.00 0.00 0.00 0.00 0.00 0.00 0.01 0.01 0.01 0.01 0.02
0.00 0.00 0.00 0.00 0.00 0.01 0.02 0.03 0.01 0.00 0.01 0.03 0.08 0.11 0.07 0.04 0.04 0.07 0.09 0.09 0.05 0.01 0.01 0.02 0.00 0.00 0.00 0.00 0.00 0.00 0.00 0.00 0.00 0.00 0.01 0.01 0.01 0.01
0.00 0.00 0.00 0.00 0.01 0.01 0.02 0.03 0.03 0.01 0.01 0.02 0.04 0.08 0.12 0.14 0.14 0.15 0.11 0.09 0.05 0.02 0.00 0.01 0.00 0.00 0.01 0.00 0.00 0.00 0.00 0.00 0.00 0.00 0.00 0.00 0.01 0.01
0.01 0.01 0.00 0.01 0.01 0.02 0.03 0.03 0.03 0.02 0.02 0.02 0.02 0.03 0.04 0.07 0.09 0.15 0.17 0.10 0.06 0.03 0.00 0.00 0.01 0.01 0.01 0.00 0.00 0.00 0.00 0.00 0.00 0.00 0.00 0.00 0.00 0.01
0.02 0.01 0.01 0.01 0.01 0.02 0.03 0.04 0.05 0.06 0.08 0.05 0.03 0.02 0.02 0.02 0.02 0.03 0.06 0.07 0.04 0.02 0.01 0.01 0.02 0.01 0.01 0.01 0.00 0.00 0.00 0.00 0.00 0.00 0.00 0.00 0.00 0.00
0.01 0.02 0.02 0.02 0.03 0.02 0.03 0.04 0.06 0.08 0.11 0.09 0.03 0.01 0.01 0.01 0.02 0.02 0.03 0.04 0.04 0.03 0.02 0.02 0.02 0.01 0.02 0.02 0.01 0.00 0.00 0.00 0.00 0.00 0.00 0.00 0.00 0.00
0.02 0.02 0.02 0.02 0.02 0.02 0.02 0.02 0.03 0.06 0.10 0.10 0.05 0.02 0.02 0.03 0.03 0.03 0.03 0.03 0.03 0.01 0.01 0.01 0.01 0.02 0.02 0.01 0.01 0.01 0.00 0.00 0.00 0.00 0.00 0.00 0.00 0.00
0.05 0.05 0.03 0.02 0.02 0.02 0.02 0.02 0.02 0.04 0.07 0.08 0.07 0.05 0.04 0.04 0.03 0.03 0.03 0.03 0.02 0.01 0.00 0.01 0.01 0.01 0.01 0.01 0.02 0.01 0.00 0.00 0.00 0.00 0.01 0.01 0.00 0.00
0.06 0.07 0.05 0.03 0.02 0.02 0.02 0.02 0.03 0.03 0.04 0.05 0.05 0.05 0.04 0.03 0.03 0.02 0.02 0.02 0.01 0.00 0.00 0.00 0.01 0.01 0.01 0.01 0.01 0.00 0.00 0.00 0.00 0.00 0.01 0.03 0.01 0.00
0.04 0.04 0.04 0.03 0.02 0.02 0.02 0.02 0.02 0.02 0.03 0.04 0.04 0.04 0.03 0.03 0.02 0.02 0.02 0.01 0.01 0.00 0.00 0.00 0.01 0.02 0.03 0.01 0.00 0.00 0.00 0.01 0.01 0.01 0.01 0.02 0.02 0.00
0.02 0.03 0.03 0.03 0.02 0.02 0.02 0.02 0.02 0.03 0.04 0.04 0.03 0.03 0.03 0.02 0.02 0.01 0.01 0.01 0.01 0.01 0.00 0.00 0.00 0.01 0.03 0.02 0.01 0.00 0.00 0.02 0.03 0.03 0.01 0.01 0.01 0.00
0.02 0.02 0.02 0.02 0.02 0.02 0.02 0.02 0.02 0.03 0.03 0.03 0.03 0.02 0.02 0.02 0.01 0.01 0.01 0.01 0.01 0.01 0.01 0.00 0.00 0.00 0.02 0.05 0.04 0.01 0.00 0.01 0.03 0.05 0.06 0.05 0.03 0.01
0.02 0.02 0.02 0.02 0.02 0.02 0.02 0.02 0.02 0.02 0.02 0.02 0.02 0.01 0.01 0.01 0.01 0.01 0.01 0.01 0.01 0.01 0.00 0.00 0.00 0.00 0.02 0.04 0.03 0.01 0.00 0.00 0.00 0.01 0.04 0.07 0.10 0.06
0.02 0.02 0.02 0.02 0.02 0.02 0.02 0.02 0.02 0.02 0.01 0.01 0.01 0.01 0.01 0.01 0.00 0.00 0.00 0.01 0.01 0.01 0.01 0.01 0.00 0.01 0.01 0.02 0.02 0.02 0.01 0.00 0.00 0.01 0.00 0.01 0.03 0.04
MSLP
1015.78 1015.88 1015.94 1015.92 1015.81 1015.58 1015.25 1014.87 1014.46 1014.08 1013.75 1013.50 1013.33 1013.23 1013.18 1013.16 1013.14 1013.11 1013.09 1013.07 1013.08 1013.15 1013.29 1013.51 1013.80 1014.15 1014.53 1014.91 1015.26 1015.57 1015.82 1016.01 1016.16 1016.27 1016.36 1016.45 1016.54 1016.62
1014.47 1014.53 1014.56 1014.54 1014.43 1014.22 1013.94 1013.60 1013.24 1012.91 1012.62 1012.42 1012.29 1012.22 1012.20 1012.20 1012.20 1012.19 1012.18 1012.18 1012.21 1012.29 1012.44 1012.66 1012.96 1013.31 1013.69 1014.06 1014.40 1014.69 1014.91 1015.08 1015.21 1015.30 1015.38 1015.45 1015.53 1015.60
1013.18 1013.16 1013.14 1013.07 1012.94 1012.73 1012.47 1012.17 1011.87 1011.61 1011.40 1011.27 1011.22 1011.22 1011.26 1011.32 1011.37 1011.40 1011.42 1011.44 1011.48 1011.56 1011.71 1011.93 1012.21 1012.53 1012.87 1013.20 1013.51 1013.76 1013.95 1014.09 1014.20 1014.27 1014.34 1014.41 1014.49 1014.58
1011.91 1011.80 1011.69 1011.56 1011.38 1011.16 1010.90 1010.64 1010.40 1010.21 1010.09 1010.05 1010.09 1010.19 1010.32 1010.45 1010.56 1010.65 1010.72 1010.77 1010.83 1010.93 1011.07 1011.26 1011.50 1011.78 1012.07 1012.35 1012.60 1012.81 1012.97 1013.08 1013.17 1013.25 1013.32 1013.40 1013.50 1013.59
1010.68 1010.47 1010.26 1010.05 1009.81 1009.56 1009.30 1009.06 1008.87 1008.75 1008.71 1008.77 1008.90 1009.10 1009.32 1009.54 1009.73 1009.89 1010.01 1010.11 1010.20 1010.31 1010.44 1010.61 1010.81 1011.04 1011.28 1011.51 1011.71 1011.87 1012.00 1012.10 1012.19 1012.27 1012.36 1012.46 1012.57 1012.69
1009.46 1009.16 1008.87 1008.59 1008.29 1008.00 1007.73 1007.50 1007.34 1007.27 1007.30 1007.43 1007.65 1007.93 1008.23 1008.53 1008.81 1009.04 1009.23 1009.38 1009.51 1009.64 1009.78 1009.94 1010.11 1010.30 1010.49 1010.67 1010.83 1010.96 1011.07 1011.17 1011.26 1011.36 1011.47 1011.59 1011.72 1011.84
1008.27 1007.90 1007.55 1007.20 1006.86 1006.54 1006.25 1006.02 1005.87 1005.83 1005.90 1006.08 1006.35 1006.69 1007.06 1007.43 1007.77 1008.08 1008.34 1008.55 1008.73 1008.90 1009.06 1009.22 1009.39 1009.55 1009.71 1009.86 1009.99 1010.10 1010.20 1010.29 1010.39 1010.50 1010.62 1010.76 1010.89 1011.00
1007.08 1006.68 1006.29 1005.91 1005.54 1005.20 1004.89 1004.66 1004.51 1004.47 1004.56 1004.75 1005.04 1005.41 1005.81 1006.23 1006.63 1007.00 1007.33 1007.61 1007.85 1008.07 1008.27 1008.46 1008.63 1008.79 1008.94 1009.07 1009.18 1009.27 1009.36 1009.45 1009.55 1009.66 1009.78 1009.91 1010.02 1010.11
1005.92 1005.51 1005.12 1004.73 1004.35 1004.00 1003.68 1003.44 1003.28 1003.23 1003.29 1003.47 1003.76 1004.13 1004.54 1004.99 1005.43 1005.85 1006.24 1006.59 1006.91 1007.18 1007.43 1007.66 1007.85 1008.02 1008.16 1008.28 1008.38 1008.46 1008.53 1008.60 1008.69 1008.78 1008.88 1008.97 1009.05 1009.09
1004.79 1004.40 1004.02 1003.65 1003.28 1002.94 1002.62 1002.36 1002.19 1002.11 1002.15 1002.30 1002.55 1002.90 1003.31 1003.76 1004.23 1004.69 1005.14 1005.55 1005.94 1006.28 1006.58 1006.85 1007.07 1007.26 1007.40 1007.51 1007.58 1007.64 1007.68 1007.73 1007.77 1007.83 1007.88 1007.92 1007.94 1007.92
1003.71 1003.35 1003.00 1002.66 1002.32 1001.99 1001.69 1001.42 1001.23 1001.13 1001.13 1001.23 1001.45 1001.77 1002.16 1002.61 1003.10 1003.59 1004.09 1004.56 1005.00 1005.40 1005.75 1006.06 1006.31 1006.50 1006.64 1006.73 1006.78 1006.80 1006.81 1006.80 1006.80 1006.79 1006.78 1006.75 1006.70 1006.61
1002.69 1002.36 1002.06 1001.75 1001.45 1001.15 1000.85 1000.59 1000.39 1000.26 1000.23 1000.30 1000.49 1000.77 1001.15 1001.59 1002.08 1002.61 1003.13 1003.65 1004.14 1004.58 1004.98 1005.31 1005.57 1005.77 1005.89 1005.96 1005.98 1005.95 1005.90 1005.84 1005.77 1005.69 1005.60 1005.50 1005.37 1005.21
1001.74 1001.45 1001.18 1000.91 1000.64 1000.37 1000.10 999.85 999.65 999.51 999.46 999.51 999.66 999.93 1000.29 1000.72 1001.22 1001.76 1002.31 1002.86 1003.37 1003.85 1004.26 1004.60 1004.87 1005.05 1005.16 1005.19 1005.17 1005.09 1004.98 1004.86 1004.71 1004.56 1004.39 1004.21 1004.01 1003.78
1000.86 1000.59 1000.35 1000.11 999.88 999.63 999.39 999.16 998.97 998.84 998.78 998.83 998.97 999.23 999.58 1000.01 1000.51 1001.06 1001.62 1002.18 1002.71 1003.18 1003.60 1003.94 1004.19 1004.35 1004.43 1004.43 1004.36 1004.23 1004.07 1003.87 1003.66 1003.43 1003.19 1002.94 1002.67 1002.38
1000.03 999.78 999.56 999.35 999.14 998.93 998.71 998.51 998.35 998.24 998.20 998.25 998.40 998.66 999.01 999.44 999.94 1000.48 1001.04 1001.59 1002.11 1002.58 1002.98 1003.29 1003.52 1003.66 1003.70 1003.66 1003.54 1003.37 1003.15 1002.90 1002.62 1002.32 1002.02 1001.69 1001.36 1001.01
999.25 999.00 998.79 998.60 998.42 998.23 998.05 997.89 997.76 997.68 997.68 997.76 997.93 998.20 998.55 998.98 999.47 999.99 1000.53 1001.06 1001.55 1001.99 1002.36 1002.64 1002.84 1002.94 1002.95 1002.87 1002.71 1002.49 1002.22 1001.91 1001.57 1001.21 1000.83 1000.44 1000.03 999.63
998.48 998.23 998.03 997.85 997.69 997.54 997.40 997.28 997.20 997.18 997.22 997.33 997.53 997.82 998.18 998.60 999.07 999.56 1000.06 1000.55 1001.00 1001.39 1001.72 1001.96 1002.12 1002.18 1002.15 1002.03 1001.84 1001.57 1001.25 1000.88 1000.47 1000.03 999.58 999.10 998.62 998.15
997.71 997.47 997.27 997.10 996.96 996.85 996.75 996.70 996.68 996.71 996.80 996.97 997.20 997.50 997.85 998.26 998.70 999.15 999.60 1000.03 1000.43 1000.76 1001.03 1001.23 1001.34 1001.36 1001.28 1001.13 1000.88 1000.57 1000.18 999.75 999.26 998.74 998.19 997.63 997.06 996.49
996.96 996.71 996.51 996.36 996.25 996.18 996.14 996.15 996.19 996.29 996.44 996.65 996.91 997.22 997.57 997.95 998.34 998.74 999.13 999.50 999.83 1000.10 1000.30 1000.44 1000.50 1000.47 1000.34 1000.14 999.84 999.46 999.01 998.49 997.91 997.29 996.64 995.96 995.28 994.62
996.23 995.98 995.79 995.66 995.59 995.56 995.59 995.66 995.77 995.94 996.14 996.39 996.67 996.98 997.31 997.66 998.00 998.34 998.66 998.95 999.20 999.40 999.54 999.61 999.60 999.51 999.34 999.07 998.71 998.25 997.72 997.11 996.43 995.70 994.93 994.14 993.34 992.57
995.58 995.33 995.15 995.05 995.01 995.04 995.12 995.26 995.44 995.66 995.91 996.18 996.48 996.78 997.09 997.39 997.68 997.95 998.19 998.40 998.56 998.69 998.75 998.75 998.68 998.53 998.28 997.95 997.51 996.98 996.35 995.64 994.86 994.02 993.13 992.23 991.32 990.44
995.06 994.81 994.65 994.57 994.57 994.65 994.78 994.97 995.20 995.47 995.75 996.05 996.34 996.63 996.90 997.15 997.37 997.57 997.73 997.86 997.95 997.99 997.98 997.90 997.76 997.53 997.22 996.81 996.30 995.69 994.98 994.18 993.30 992.36 991.38 990.38 989.38 988.41
994.71 994.47 994.33 994.28 994.31 994.42 994.60 994.83 995.09 995.38 995.68 995.98 996.26 996.51 996.74 996.94 997.10 997.22 997.31 997.36 997.37 997.33 997.24 997.09 996.87 996.58 996.19 995.71 995.13 994.45 993.67 992.80 991.86 990.85 989.81 988.74 987.68 986.65
Thickness
5491 5486 5480 5478 5471 5466 5460 5453 5448 5458 5478 5481 5468 5467 5462 5459 5458 5456 5457 5455 5455 5455 5455 5453 5451 5449 5447 5446 5444 5444 5443 5442 5442 5442 5443 5445 5447 5449
5478 5472 5468 5463 5457 5452 5446 5441 5435 5435 5450 5468 5460 5453 5446 5445 5442 5441 5441 5440 5441 5441 5441 5441 5439 5437 5435 5434 5432 5431 5430 5429 5429 5430 5431 5433 5435 5437
5461 5455 5453 5446 5441 5437 5431 5427 5423 5419 5425 5452 5442 5436 5429 5427 5427 5427 5426 5426 5426 5426 5427 5427 5426 5425 5423 5421 5420 5419 5418 5417 5417 5418 5419 5421 5423 5426
5444 5437 5434 5427 5424 5420 5415 5413 5411 5407 5407 5423 5427 5417 5415 5412 5411 5410 5411 5411 5410 5410 5410 5411 5411 5411 5410 5409 5407 5406 5405 5404 5405 5405 5407 5409 5410 5412
5424 5418 5415 5408 5407 5404 5400 5399 5398 5395 5394 5399 5411 5403 5399 5396 5393 5393 5394 5395 5395 5394 5394 5396 5396 5397 5397 5396 5395 5393 5393 5392 5392 5393 5393 5394 5396 5399
5405 5400 5397 5393 5392 5389 5388 5387 5384 5382 5382 5384 5391 5389 5385 5381 5378 5380 5378 5379 5380 5380 5380 5380 5381 5382 5383 5382 5382 5381 5380 5379 5379 5380 5380 5381 5382 5384
5391 5387 5384 5382 5380 5378 5376 5376 5372 5371 5371 5371 5376 5375 5373 5368 5368 5367 5366 5366 5366 5365 5364 5365 5365 5366 5366 5367 5367 5366 5366 5365 5365 5366 5366 5367 5368 5369
5381 5378 5375 5373 5371 5372 5373 5373 5369 5364 5364 5363 5366 5366 5365 5361 5357 5354 5353 5352 5354 5353 5349 5351 5350 5351 5351 5349 5349 5349 5350 5350 5350 5350 5351 5352 5353 5354
5372 5369 5368 5366 5364 5362 5362 5364 5365 5365 5363 5359 5359 5360 5356 5353 5348 5344 5343 5343 5344 5341 5337 5339 5338 5338 5336 5336 5335 5335 5335 5335 5335 5335 5336 5337 5338 5339
5362 5360 5359 5358 5355 5353 5353 5353 5354 5354 5354 5355 5355 5354 5349 5345 5342 5338 5335 5333 5331 5328 5325 5325 5325 5324 5324 5323 5322 5322 5322 5322 5321 5321 5322 5322 5323 5324
5356 5353 5351 5350 5350 5350 5349 5348 5349 5348 5347 5348 5348 5347 5344 5340 5334 5328 5324 5321 5321 5318 5314 5312 5314 5312 5311 5312 5310 5309 5309 5308 5308 5308 5308 5308 5308 5309
5352 5349 5348 5347 5347 5346 5344 5344 5344 5343 5340 5338 5338 5338 5336 5334 5331 5325 5319 5315 5313 5310 5307 5302 5300 5296 5297 5301 5299 5296 5295 5294 5294 5294 5294 5294 5292 5292
5347 5346 5343 5343 5343 5343 5342 5341 5341 5339 5335 5331 5328 5326 5323 5321 5319 5316 5312 5308 5304 5301 5298 5292 5288 5284 5284 5287 5287 5285 5282 5281 5279 5279 5279 5279 5278 5278
5342 5341 5340 5340 5339 5339 5338 5338 5337 5336 5331 5325 5321 5318 5314 5312 5309 5305 5302 5298 5295 5291 5287 5282 5278 5274 5272 5273 5275 5275 5272 5270 5268 5268 5268 5267 5267 5267
5337 5338 5338 5337 5336 5333 5333 5332 5331 5328 5325 5320 5316 5312 5308 5304 5300 5295 5290 5286 5282 5278 5274 5270 5266 5262 5259 5260 5262 5262 5261 5261 5258 5258 5258 5258 5258 5256
5333 5333 5333 5332 5329 5327 5326 5323 5320 5318 5317 5315 5310 5305 5299 5294 5290 5285 5280 5275 5270 5266 5262 5258 5254 5250 5248 5248 5248 5250 5249 5249 5251 5248 5247 5249 5249 5248
5331 5330 5326 5323 5321 5318 5317 5315 5313 5311 5310 5307 5303 5297 5291 5286 5281 5276 5271 5265 5260 5256 5250 5246 5242 5239 5237 5236 5237 5240 5240 5240 5240 5238 5237 5242 5245 5243
5329 5326 5323 5320 5317 5314 5311 5309 5307 5305 5302 5298 5294 5289 5284 5279 5273 5266 5261 5255 5250 5245 5240 5235 5229 5225 5225 5228 5230 5230 5231 5231 5231 5229 5228 5231 5242 5241
5322 5320 5318 5315 5313 5309 5306 5303 5300 5298 5294 5290 5285 5280 5276 5270 5264 5257 5251 5245 5240 5236 5232 5227 5221 5217 5220 5226 5228 5226 5223 5225 5224 5224 5224 5225 5233 5239
5314 5313 5312 5310 5307 5304 5300 5297 5293 5290 5285 5281 5276 5271 5266 5260 5254 5248 5242 5237 5232 5228 5225 5220 5215 5213 5214 5219 5222 5223 5219 5216 5217 5220 5221 5223 5229 5234
5310 5308 5306 5304 5301 5298 5294 5290 5286 5282 5278 5273 5267 5262 5256 5250 5245 5240 5234 5231 5227 5222 5220 5218 5215 5214 5211 5209 5214 5222 5219 5215 5214 5214 5217 5219 5226 5232
5306 5304 5301 5298 5295 5292 5288 5284 5279 5275 5269 5264 5259 5253 5247 5242 5237 5232 5227 5222 5220 5217 5216 5215 5212 5207 5203 5205 5211 5217 5218 5216 5214 5214 5216 5218 5220 5232
5302 5299 5296 5293 5290 5286 5281 5277 5273 5268 5262 5256 5251 5245 5240 5235 5230 5226 5222 5218 5215 5213 5211 5210 5208 5205 5203 5203 5205 5210 5212 5214 5215 5218 5221 5222 5225 5232